Location: Gilevgi
(36.8751°N, 30.0581°E)
Time: 09:18:55
(UTC+00:00)

CZ-2D R/B - Pass Details

Date: 08 March 2026
Orbit: 524 x 594 km, 98.0° (Epoch: 20 April)

Event Time Altitude Azimuth Distance (km) Brightness Sun altitude
Rises 17:31:04 0° 198° (SSW) 2,772 7.0 -18.9°
Reaches altitude 10° 17:33:36 10° 214° (SW) 1,890 6.4 -19.4°
Maximum altitude 17:36:46 21° 265° (W) 1,319 6.1 -20.0°
Drops below altitude 10° 17:40:00 10° 316° (NW) 1,924 6.8 -20.6°
Sets 17:42:36 0° 332° (NNW) 2,836 7.5 -21.2°
